Wahpeton, MN

4:08 PM CST on December 10, 2019 (GMT -0600)
Stern

Weather History for KBWP - October, 2019

Change the Weather History Date:

Friday, October 18, 2019

  Actual Average (WUND) Record (WUND)
Temperature  
Mean Temperature 54 °F -  
Max Temperature 64 °F - - (-1)
Min Temperature 44 °F - - (-1)
Degree Days  
Heating Degree Days 11    
Growing Degree Days 4 (Base 50)    
Moisture  
Dew Point 42 °F    
Average Humidity 67    
Maximum Humidity 82    
Minimum Humidity 45    
Precipitation  
Precipitation 0.00 in - - ()
Sea Level Pressure  
Sea Level Pressure 29.50 in    
Wind  
Wind Speed 16 mph ()    
Max Wind Speed 24 mph    
Max Gust Speed 32 mph    
Visibility 10.0 miles    
Events      
Averages and records for this station are not official NWS values.
T = Trace of Precipitation, MM = Missing Value Source: Averaged Metar Reports

Daily Weather History Graph

Daily Weather History Graph

Search for Another Location

Airport or City:

Astronomy

Oct. 18, 2019 Rise Set
Actual Time 7:47 AM CDT 6:34 PM CDT
Civil Twilight 7:17 AM CDT 7:05 PM CDT
Nautical Twilight 6:42 AM CDT 7:40 PM CDT
Astronomical Twilight 6:07 AM CDT 8:14 PM CDT
Moon 9:39 PM CDT (10/18) 12:34 PM CDT (10/18)
Length of Visible Light 11h 48m
Length of Day
10h 47m
Waning Gibbous, 78% of the Moon is Illuminated
Oct 18
Waning Gibbous
Oct 21
Last Quarter
Oct 27
New
Nov 4
First Quarter
Nov 12
Full

Hourly Weather History & Observations

Time (CDT) Temp. Windchill Dew Point Humidity Pressure Visibility Wind Dir Wind Speed Gust Speed Precip Events Conditions
12:15 AM 50.0 °F - 37.4 °F 62% 29.66 in 10.0 mi SE 18.4 mph 24.2 mph N/A   Unknown
12:35 AM 50.0 °F - 37.4 °F 62% 29.65 in 10.0 mi SE 20.7 mph 26.5 mph N/A   Unknown
12:55 AM 50.0 °F - 37.4 °F 62% 29.64 in 10.0 mi SE 20.7 mph 27.6 mph N/A   Unknown
1:15 AM 50.0 °F - 37.4 °F 62% 29.63 in 10.0 mi SE 20.7 mph 28.8 mph N/A   Unknown
1:35 AM 50.0 °F - 37.4 °F 62% 29.61 in 10.0 mi SE 20.7 mph 28.8 mph N/A   Unknown
1:55 AM 50.0 °F - 37.4 °F 62% 29.60 in 10.0 mi SE 21.9 mph 27.6 mph N/A   Unknown
2:15 AM 50.0 °F - 37.4 °F 62% 29.60 in 10.0 mi SE 20.7 mph 26.5 mph N/A   Unknown
2:35 AM 48.2 °F - 39.2 °F 71% 29.59 in 10.0 mi SE 20.7 mph 27.6 mph N/A   Unknown
2:55 AM 50.0 °F - 39.2 °F 66% 29.58 in 10.0 mi SE 19.6 mph 25.3 mph N/A   Unknown
3:15 AM 48.2 °F - 39.2 °F 71% 29.58 in 10.0 mi SE 21.9 mph 28.8 mph N/A   Unknown
3:35 AM 48.2 °F - 39.2 °F 71% 29.57 in 10.0 mi SE 18.4 mph 27.6 mph N/A   Unknown
3:55 AM 46.4 °F 38.7 °F 39.2 °F 76% 29.56 in 10.0 mi SE 20.7 mph 26.5 mph N/A   Unknown
4:15 AM 46.4 °F 38.7 °F 39.2 °F 76% 29.55 in 10.0 mi SE 20.7 mph 27.6 mph N/A   Unknown
4:35 AM 46.4 °F 38.3 °F 39.2 °F 76% 29.54 in 10.0 mi SE 23.0 mph 32.2 mph N/A   Unknown
4:55 AM 46.4 °F 38.5 °F 39.2 °F 76% 29.54 in 10.0 mi SE 21.9 mph 28.8 mph N/A   Unknown
5:15 AM 46.4 °F 38.1 °F 39.2 °F 76% 29.52 in 10.0 mi SE 24.2 mph 31.1 mph N/A   Unknown
5:35 AM 46.4 °F 38.7 °F 39.2 °F 76% 29.52 in 10.0 mi SE 20.7 mph 27.6 mph N/A   Unknown
5:55 AM 46.4 °F 39.2 °F 39.2 °F 76% 29.52 in 10.0 mi SE 18.4 mph 28.8 mph N/A   Unknown
6:15 AM 46.4 °F 38.5 °F 39.2 °F 76% 29.51 in 10.0 mi SE 21.9 mph 28.8 mph N/A   Unknown
6:35 AM 46.4 °F 38.7 °F 39.2 °F 76% 29.51 in 10.0 mi SE 20.7 mph 26.5 mph N/A   Unknown
6:55 AM 46.4 °F 39.0 °F 39.2 °F 76% 29.51 in 10.0 mi SE 19.6 mph 27.6 mph N/A   Unknown
7:15 AM 46.4 °F 39.2 °F 39.2 °F 76% 29.50 in 10.0 mi SE 18.4 mph 26.5 mph N/A   Unknown
7:35 AM 46.4 °F 39.8 °F 39.2 °F 76% 29.50 in 10.0 mi SE 16.1 mph 23.0 mph N/A   Unknown
7:55 AM 44.6 °F 37.2 °F 39.2 °F 81% 29.50 in 10.0 mi SE 17.3 mph 20.7 mph N/A   Unknown
8:15 AM 44.6 °F 37.2 °F 39.2 °F 81% 29.51 in 10.0 mi SSE 17.3 mph 21.9 mph N/A   Unknown
8:35 AM 46.4 °F 39.0 °F 41.0 °F 81% 29.50 in 10.0 mi SE 19.6 mph 24.2 mph N/A   Unknown
8:55 AM 46.4 °F 39.5 °F 41.0 °F 81% 29.49 in 10.0 mi SE 17.3 mph 24.2 mph N/A   Unknown
9:15 AM 46.4 °F 39.5 °F 41.0 °F 81% 29.49 in 10.0 mi SE 17.3 mph 24.2 mph N/A   Unknown
9:35 AM 48.2 °F - 41.0 °F 76% 29.48 in 10.0 mi SSE 19.6 mph 25.3 mph N/A   Unknown
9:55 AM 50.0 °F - 41.0 °F 71% 29.48 in 10.0 mi SE 23.0 mph 28.8 mph N/A   Unknown
10:15 AM 50.0 °F - 42.8 °F 76% 29.48 in 10.0 mi SSE 19.6 mph 26.5 mph N/A   Unknown
10:35 AM 51.8 °F - 42.8 °F 71% 29.47 in 10.0 mi SSE 21.9 mph 27.6 mph N/A   Unknown
10:55 AM 51.8 °F - 42.8 °F 71% 29.47 in 10.0 mi SSE 19.6 mph 27.6 mph N/A   Unknown
11:15 AM 53.6 °F - 42.8 °F 67% 29.47 in 10.0 mi SSE 23.0 mph 28.8 mph N/A   Unknown
11:35 AM 55.4 °F - 42.8 °F 63% 29.46 in 10.0 mi SSE 23.0 mph 26.5 mph N/A   Unknown
11:55 AM 55.4 °F - 42.8 °F 63% 29.45 in 10.0 mi SSE 23.0 mph - N/A   Unknown
12:15 PM 57.2 °F - 42.8 °F 59% 29.44 in 10.0 mi SSE 19.6 mph 25.3 mph N/A   Unknown
12:35 PM 59.0 °F - 44.6 °F 59% 29.44 in 10.0 mi SSE 17.3 mph 24.2 mph N/A   Unknown
12:55 PM 59.0 °F - 42.8 °F 55% 29.42 in 10.0 mi SSE 20.7 mph 27.6 mph N/A   Unknown
1:15 PM 60.8 °F - 44.6 °F 55% 29.42 in 10.0 mi SSE 19.6 mph 25.3 mph N/A   Unknown
1:35 PM 60.8 °F - 44.6 °F 55% 29.41 in 10.0 mi SSE 19.6 mph 24.2 mph N/A   Unknown
1:55 PM 60.8 °F - 44.6 °F 55% 29.40 in 10.0 mi South 20.7 mph 26.5 mph N/A   Unknown
2:15 PM 62.6 °F - 44.6 °F 52% 29.40 in 10.0 mi SSE 16.1 mph 24.2 mph N/A   Unknown
2:35 PM 62.6 °F - 44.6 °F 52% 29.41 in 10.0 mi SSE 17.3 mph 23.0 mph N/A   Unknown
2:55 PM 62.6 °F - 44.6 °F 52% 29.40 in 10.0 mi South 17.3 mph 20.7 mph N/A   Unknown
3:15 PM 62.6 °F - 44.6 °F 52% 29.41 in 10.0 mi South 11.5 mph 20.7 mph N/A   Unknown
3:35 PM 64.4 °F - 44.6 °F 49% 29.41 in 10.0 mi SSE 16.1 mph 21.9 mph N/A   Unknown
3:55 PM 64.4 °F - 42.8 °F 45% 29.41 in 10.0 mi South 15.0 mph 23.0 mph N/A   Unknown
4:15 PM 64.4 °F - 42.8 °F 45% 29.41 in 10.0 mi SSW 13.8 mph 24.2 mph N/A   Unknown
4:35 PM 64.4 °F - 42.8 °F 45% 29.42 in 10.0 mi South 11.5 mph - N/A   Unknown
4:55 PM 62.6 °F - 44.6 °F 52% 29.42 in 10.0 mi South 10.4 mph - N/A   Unknown
5:15 PM 62.6 °F - 44.6 °F 52% 29.43 in 10.0 mi SW 8.1 mph - N/A   Unknown
5:35 PM 60.8 °F - 44.6 °F 55% 29.43 in 10.0 mi SW 6.9 mph - N/A   Unknown
5:55 PM 60.8 °F - 44.6 °F 55% 29.44 in 10.0 mi SW 6.9 mph - N/A   Unknown
6:15 PM 60.8 °F - 44.6 °F 55% 29.44 in 10.0 mi SW 6.9 mph - N/A   Unknown
6:35 PM 59.0 °F - 44.6 °F 59% 29.45 in 10.0 mi WSW 8.1 mph - N/A   Unknown
6:55 PM 57.2 °F - 44.6 °F 63% 29.46 in 10.0 mi WSW 5.8 mph - N/A   Unknown
7:15 PM 57.2 °F - 44.6 °F 63% 29.46 in 10.0 mi WSW 4.6 mph - N/A   Unknown
7:35 PM 55.4 °F - 44.6 °F 67% 29.47 in 10.0 mi West 9.2 mph - N/A   Unknown
7:55 PM 55.4 °F - 44.6 °F 67% 29.47 in 10.0 mi West 5.8 mph - N/A   Unknown
8:15 PM 53.6 °F - 44.6 °F 72% 29.48 in 10.0 mi West 11.5 mph - N/A   Unknown
8:35 PM 53.6 °F - 44.6 °F 72% 29.49 in 10.0 mi West 9.2 mph - N/A   Unknown
8:55 PM 51.8 °F - 44.6 °F 76% 29.49 in 10.0 mi WNW 9.2 mph - N/A   Unknown
9:15 PM 51.8 °F - 44.6 °F 76% 29.51 in 10.0 mi West 6.9 mph - N/A   Unknown
9:35 PM 51.8 °F - 44.6 °F 76% 29.51 in 10.0 mi West 8.1 mph - N/A   Unknown
9:55 PM 50.0 °F - 44.6 °F 82% 29.52 in 10.0 mi West 8.1 mph - N/A   Unknown
10:15 PM 50.0 °F - 44.6 °F 82% 29.54 in 10.0 mi West 10.4 mph - N/A   Unknown
10:35 PM 50.0 °F - 42.8 °F 76% 29.55 in 10.0 mi West 9.2 mph - N/A   Unknown
10:55 PM 50.0 °F - 42.8 °F 76% 29.56 in 10.0 mi WSW 9.2 mph - N/A   Unknown
11:15 PM 48.2 °F - 41.0 °F 76% 29.55 in 10.0 mi West 9.2 mph - N/A   Unknown
11:35 PM 46.4 °F 42.4 °F 41.0 °F 81% 29.56 in 10.0 mi West 8.1 mph - N/A   Unknown
11:55 PM 46.4 °F 42.9 °F 41.0 °F 81% 29.56 in 10.0 mi West 6.9 mph - N/A   Unknown